Tracking 29967 objects as of 5-Dec-2024
HD Live streaming from Space Station
objects crossing your sky now

MIDAS 4 DEB

Track MIDAS 4 DEB now!
10-day predictions


NORAD ID: 194
Int'l Code: 1961-028C
Perigee: 3,218.8 km
Apogee: 4,009.9 km
Inclination: 95.8 °
Period: 165.5 minutes
Semi major axis: 9985 km
RCS: 0.6373 m2 (medium)
Launch date: October 21, 1961
Source: United States (US)
Launch site: AIR FORCE WESTERN TEST RANGE (AFWTR)

Note: This is SATELLITE DEBRIS
Your satellite tracking list
Your tracking list is empty




NASA's NSSDC Master Catalog

Two Line Element Set (TLE):
1 00194U 61028C   24338.82802732 -.00000008  00000-0 -20316-2 0  9997
2 00194  95.8367 130.2546 0396133  14.4839 346.7004  8.70082455  4398
Source of the keplerian elements: AFSPC